Date String (YYYY-MM-DD hh:mm:ss) UTC,Instrument flags,Ambient pressure (hPa),Sample flow (lpm),Bypass flow (lpm),Sample temperature (°C),Ambient temperature (°C),ASC tube jacket temperature (°C),LED temperature (°C),Box temperature (°C),Sample RH (%),Mass concentration (μg/m³),Mass concentration (μg/m³)
DateTimeUTC,F1_M11,P_M11,Q1_M11,Q2_M11,T1_M11,T2_M11,T3_M11,T4_M11,T5_M11,U1_M11,X0_M11,X2_M11
2021-08-13 09:00:00,,0834.0,5.00,0.00,29.6,28.8,00.0,38.6,31.6,28.6,0029.96,0008.36
2021-08-13 09:01:00,,0833.9,5.01,0.00,29.7,28.8,00.0,38.6,31.6,28.5,0030.64,0008.40
2021-08-13 09:02:00,,0833.9,5.01,0.00,29.7,28.9,00.0,38.6,31.7,28.4,0030.78,0008.55
2021-08-13 09:03:00,,0833.9,4.99,0.00,29.7,28.9,00.0,38.7,31.7,28.4,0030.43,0008.53
2021-08-13 09:04:00,,0833.9,5.00,0.00,29.8,29.0,00.0,38.7,31.7,28.3,0030.50,0008.52
2021-08-13 09:05:00,,0833.9,5.01,0.00,29.8,28.8,00.0,38.7,31.7,28.2,0031.26,0008.54
2021-08-13 09:06:00,,0833.9,5.01,0.00,29.7,27.1,00.0,38.7,31.2,28.2,0028.94,0008.58
2021-08-13 09:07:00,,0833.9,4.99,0.00,29.5,25.5,00.0,38.7,30.8,28.5,0027.95,0008.58
2021-08-13 09:08:00,,0833.9,4.99,0.00,29.2,25.3,00.0,38.6,30.7,28.9,0027.84,0008.60
2021-08-13 09:09:00,,0833.9,5.00,0.00,29.1,25.7,00.0,38.5,30.7,29.2,0028.19,0008.59
2021-08-13 09:10:00,,0833.9,5.01,0.00,29.0,26.2,00.0,38.5,30.8,29.4,0027.95,0008.48
2021-08-13 09:11:00,,0833.9,5.01,0.00,29.0,26.6,00.0,38.4,30.9,29.5,0027.34,0008.43
2021-08-13 09:12:00,,0833.9,4.98,0.00,29.0,27.0,00.0,38.4,30.9,29.4,0026.21,0008.33
2021-08-13 09:13:00,,0833.8,5.01,0.00,29.0,27.3,00.0,38.4,31.0,29.4,0026.25,0008.25
2021-08-13 09:14:00,,0833.8,5.01,0.00,29.1,27.6,00.0,38.4,31.1,29.4,0026.90,0008.22
2021-08-13 09:15:00,,0833.8,4.99,0.00,29.1,27.8,00.0,38.4,31.1,29.3,0028.47,0008.23
2021-08-13 09:16:00,,0833.8,4.99,0.00,29.1,27.9,00.0,38.4,31.1,29.2,0027.51,0008.17
2021-08-13 09:17:00,,0833.8,5.00,0.00,29.2,28.1,00.0,38.4,31.2,29.2,0028.42,0008.12
2021-08-13 09:18:00,,0833.8,5.01,0.00,29.2,28.2,00.0,38.4,31.2,29.1,0029.23,0008.16
2021-08-13 09:19:00,,0833.8,5.01,0.00,29.3,28.3,00.0,38.4,31.3,29.0,0029.36,0008.15
2021-08-13 09:20:00,,0833.8,4.99,0.00,29.3,28.4,00.0,38.4,31.3,28.9,0029.28,0008.13
2021-08-13 09:21:00,,0833.9,4.99,0.00,29.4,28.5,00.0,38.4,31.3,28.8,0029.50,0008.15
2021-08-13 09:22:00,,0833.8,5.01,0.00,29.4,28.5,00.0,38.4,31.4,28.7,0031.13,0008.21
2021-08-13 09:23:00,,0833.8,5.00,0.00,29.5,28.6,00.0,38.4,31.4,28.6,0030.81,0008.28
2021-08-13 09:24:00,,0833.8,5.00,0.00,29.5,28.7,00.0,38.5,31.5,28.6,0031.14,0008.28
2021-08-13 09:25:00,,0833.8,4.99,0.00,29.5,28.7,00.0,38.5,31.5,28.5,0029.74,0008.27
2021-08-13 09:26:00,,0833.8,5.00,0.00,29.6,28.8,00.0,38.5,31.6,28.4,0028.07,0008.20
2021-08-13 09:27:00,,0833.8,4.99,0.00,29.6,28.8,00.0,38.6,31.6,28.3,0029.39,0008.22
2021-08-13 09:28:00,,0833.8,5.01,0.00,29.7,28.9,00.0,38.6,31.6,28.3,0028.92,0008.18
2021-08-13 09:29:00,,0833.9,5.00,0.00,29.7,28.9,00.0,38.6,31.7,28.2,0027.73,0008.14
2021-08-13 09:30:00,,0833.8,5.00,0.00,29.7,29.0,00.0,38.6,31.7,28.2,0027.41,0008.10
2021-08-13 09:31:00,,0833.9,5.00,0.00,29.8,29.0,00.0,38.7,31.7,28.1,0027.50,0008.14
2021-08-13 09:32:00,,0833.9,4.99,0.00,29.8,29.1,00.0,38.7,31.8,28.0,0026.77,0008.14
2021-08-13 09:33:00,,0833.9,5.01,0.00,29.8,29.1,00.0,38.7,31.7,28.0,0025.75,0008.06
2021-08-13 09:34:00,,0833.8,5.01,0.00,29.8,27.7,00.0,38.7,31.4,28.0,0025.91,0008.01
2021-08-13 09:35:00,,0833.8,4.99,0.00,29.6,26.2,00.0,38.7,31.0,28.3,0025.05,0008.06
2021-08-13 09:36:00,,0833.8,4.99,0.00,29.4,26.1,00.0,38.7,31.0,28.6,0025.51,0008.08
2021-08-13 09:37:00,,0833.7,5.01,0.00,29.3,26.5,00.0,38.6,31.0,28.8,0026.14,0008.14
2021-08-13 09:38:00,,0833.8,5.01,0.00,29.2,26.9,00.0,38.6,31.1,28.9,0025.47,0008.16
2021-08-13 09:39:00,,0833.7,4.99,0.00,29.2,27.3,00.0,38.6,31.1,28.9,0025.60,0008.24
2021-08-13 09:40:00,,0833.8,4.99,0.00,29.3,27.6,00.0,38.5,31.2,28.9,0026.99,0008.26
2021-08-13 09:41:00,,0833.8,5.00,0.00,29.3,27.8,00.0,38.5,31.3,28.9,0027.36,0008.32
2021-08-13 09:42:00,,0833.7,5.00,0.00,29.3,28.1,00.0,38.5,31.3,28.8,0027.50,0008.38
2021-08-13 09:43:00,,0833.7,5.00,0.00,29.4,28.2,00.0,38.5,31.3,28.8,0027.90,0008.47
2021-08-13 09:44:00,,0833.8,4.99,0.00,29.4,28.4,00.0,38.5,31.4,28.7,0028.62,0008.57
2021-08-13 09:45:00,,0833.8,5.01,0.00,29.4,28.5,00.0,38.5,31.4,28.6,0030.10,0008.72
2021-08-13 09:46:00,,0833.8,5.00,0.00,29.5,28.6,00.0,38.6,31.5,28.6,0031.28,0008.88
2021-08-13 09:47:00,,0833.8,4.99,0.00,29.5,28.7,00.0,38.6,31.5,28.6,0032.01,0009.14
2021-08-13 09:48:00,,0833.7,5.00,0.00,29.6,28.7,00.0,38.6,31.5,28.6,0032.44,0009.36
2021-08-13 09:49:00,,0833.7,5.00,0.00,29.6,28.8,00.0,38.6,31.6,28.6,0033.68,0009.52
2021-08-13 09:50:00,,0833.7,5.00,0.00,29.6,28.9,00.0,38.6,31.6,28.5,0033.76,0009.78
2021-08-13 09:51:00,,0833.7,5.01,0.00,29.7,28.9,00.0,38.7,31.6,28.5,0034.44,0009.90
2021-08-13 09:52:00,,0833.7,4.99,0.00,29.7,29.0,00.0,38.7,31.6,28.5,0034.01,0009.96
2021-08-13 09:53:00,,0833.8,5.00,0.00,29.7,29.0,00.0,38.7,31.7,28.5,0035.15,0009.97
2021-08-13 09:54:00,,0833.8,5.00,0.00,29.8,29.0,00.0,38.7,31.7,28.4,0035.71,0009.88
2021-08-13 09:55:00,,0833.8,5.00,0.00,29.8,29.1,00.0,38.8,31.7,28.3,0034.44,0009.90
2021-08-13 09:56:00,,0833.8,5.00,0.00,29.8,29.1,00.0,38.8,31.7,28.3,0033.57,0009.86
2021-08-13 09:57:00,,0833.8,5.01,0.00,29.9,29.2,00.0,38.8,31.8,28.2,0032.68,0009.67
2021-08-13 09:58:00,,0833.8,4.99,0.00,29.9,29.2,00.0,38.8,31.8,28.1,0032.11,0009.47
2021-08-13 09:59:00,,0833.8,5.00,0.00,29.9,29.2,00.0,38.9,31.9,28.0,0030.74,0009.24
